K4BHH Weather Reports


time (UTC)temp
C
wind
direction
speed
KPH
gust
KPH
rain 1hr
cm
rain 24hr
cm
rain mn
cm
humidity
%
barometer
mb
20260504081555 7 187 0.0 0.0 0.00 0.00 0.00 86 1016.6
20260504080523 7 187 0.0 0.0 0.00 0.00 0.00 87 1016.6
20260504050331 8 175 0.0 0.0 0.00 0.00 0.00 83 1017.9
20260504045330 8 175 0.0 0.0 0.00 0.00 0.00 83 1017.9
20260504044329 8 175 0.0 0.0 0.00 0.00 0.00 80 1017.9
20260504043329 8 175 0.0 0.0 0.00 0.00 0.00 81 1017.9
20260504042328 9 175 0.0 0.0 0.00 0.00 0.00 82 1017.9
20260504041327 9 175 0.0 0.0 0.00 0.00 0.00 81 1017.9
20260504040255 10 175 0.0 1.6 0.00 0.00 0.00 79 1017.9
20260504035254 10 175 1.6 1.6 0.00 0.00 0.00 76 1017.6
20260504034150 10 192 0.0 1.6 0.00 0.00 0.00 76 1017.9
20260504033047 10 194 1.6 4.8 0.00 0.00 0.00 75 1017.9
20260504032015 11 184 3.2 4.8 0.00 0.00 0.00 77 1017.9
20260504031015 11 184 3.2 6.4 0.00 0.00 0.00 75 1018.3
20260504030014 11 197 4.8 6.4 0.00 0.00 0.00 75 1018.3
20260504024941 10 191 4.8 4.8 0.00 0.00 0.00 78 1018.3
20260504023909 11 205 1.6 4.8 0.00 0.00 0.00 76 1018.3
20260504022806 10 198 3.2 4.8 0.00 0.00 0.00 79 1017.9
20260504021733 10 151 0.0 0.0 0.00 0.00 0.00 77 1018.3
20260504020732 10 151 0.0 0.0 0.00 0.00 0.00 76 1017.9
20260504015731 11 151 0.0 0.0 0.00 0.00 0.00 74 1017.9
20260504014730 11 151 0.0 0.0 0.00 0.00 0.00 71 1017.6
20260504013729 12 151 0.0 0.0 0.00 0.00 0.00 68 1017.6
20260504012657 12 151 0.0 0.0 0.00 0.00 0.00 69 1017.6
20260504011656 13 151 0.0 0.0 0.00 0.00 0.00 64 1017.6
20260504010655 13 151 0.0 0.0 0.00 0.00 0.00 62 1017.3
20260504005654 14 151 0.0 0.0 0.00 0.00 0.00 58 1017.3
20260504004621 15 151 0.0 0.0 0.00 0.00 0.00 56 1017.3
20260504003620 16 151 0.0 3.2 0.00 0.00 0.00 52 1017.3
20260504002618 17 213 1.6 3.2 0.00 0.00 0.00 50 1017.3
20260504001617 18 257 0.0 6.4 0.00 0.00 0.00 47 1017.3
20260504000617 18 248 3.2 4.8 0.00 0.00 0.00 45 1017.3
20260503235616 18 252 1.6 8.0 0.00 0.00 0.00 44 1017.3
20260503234615 18 272 3.2 8.0 0.00 0.00 0.00 43 1017.6
20260503233614 19 263 3.2 8.0 0.00 0.00 0.00 42 1017.6
20260503232613 19 268 1.6 9.7 0.00 0.00 0.00 43 1017.6
20260503231541 19 285 3.2 9.7 0.00 0.00 0.00 42 1017.6
20260503230540 19 291 3.2 11.3 0.00 0.00 0.00 42 1017.9
20260503225539 19 290 4.8 11.3 0.00 0.00 0.00 41 1017.9
20260503224506 19 279 3.2 12.9 0.00 0.00 0.00 41 1017.9
20260503223505 20 216 6.4 12.9 0.00 0.00 0.00 39 1017.9
20260503222504 20 270 3.2 6.4 0.00 0.00 0.00 39 1017.9
20260503221432 20 271 3.2 12.9 0.00 0.00 0.00 41 1017.9
20260503220400 20 228 4.8 12.9 0.00 0.00 0.00 41 1017.9
20260503215359 20 226 4.8 11.3 0.00 0.00 0.00 42 1018.3
20260503214358 19 274 3.2 12.9 0.00 0.00 0.00 38 1018.3
20260503213326 20 291 4.8 11.3 0.00 0.00 0.00 40 1018.3
20260503212325 19 244 3.2 11.3 0.00 0.00 0.00 41 1018.3
20260503211324 19 289 6.4 11.3 0.00 0.00 0.00 39 1018.6
20260503210324 19 285 4.8 9.7 0.00 0.00 0.00 42 1018.6
20260503205252 19 274 1.6 12.9 0.00 0.00 0.00 38 1018.6
20260503204250 19 289 1.6 8.0 0.00 0.00 0.00 41 1018.6
20260503203250 19 278 3.2 11.3 0.00 0.00 0.00 42 1019.0
20260503202249 18 296 3.2 12.9 0.00 0.00 0.00 39 1019.3
20260503201248 19 283 4.8 12.9 0.00 0.00 0.00 39 1019.3
20260503200247 19 234 4.8 12.9 0.00 0.00 0.00 41 1019.6
20260503195247 18 244 4.8 14.5 0.00 0.00 0.00 40 1020.0
20260503194245 18 267 4.8 16.1 0.00 0.00 0.00 43 1020.0
20260503193245 18 343 3.2 16.1 0.00 0.00 0.00 42 1020.3
20260503192244 18 267 6.4 14.5 0.00 0.00 0.00 40 1020.3
20260503191243 18 282 4.8 19.3 0.00 0.00 0.00 40 1020.7
20260503190242 18 271 8.0 19.3 0.00 0.00 0.00 42 1020.7
20260503185241 18 207 3.2 12.9 0.00 0.00 0.00 41 1021.0
20260503184138 18 260 3.2 12.9 0.00 0.00 0.00 44 1021.0
20260503183137 17 216 4.8 11.3 0.00 0.00 0.00 45 1021.0
20260503182136 17 257 3.2 12.9 0.00 0.00 0.00 42 1021.3
20260503181135 17 290 6.4 12.9 0.00 0.00 0.00 41 1021.3
20260503180133 17 312 1.6 12.9 0.00 0.00 0.00 40 1021.3
20260503175132 17 299 1.6 9.7 0.00 0.00 0.00 47 1021.3
20260503174132 16 25 1.6 9.7 0.00 0.00 0.00 47 1021.7
20260503173131 16 270 3.2 11.3 0.00 0.00 0.00 47 1021.7
20260503172129 17 232 3.2 11.3 0.00 0.00 0.00 47 1022.0
20260503171129 16 350 3.2 11.3 0.00 0.00 0.00 49 1022.0
20260503170128 16 278 4.8 11.3 0.00 0.00 0.00 46 1022.4
20260503150912 13 281 3.2 8.0 0.00 0.00 0.00 54 1022.7
20260503130831 10 16 4.8 11.3 0.00 0.00 0.00 83 1022.7